Regional Weather Roundup
Issued by NWS

Home | Current Version | Previous Version | Text Only | Print | Product List | Glossary Off
Versions: 1 2 3 4 5 6 7 8 9 10 11 12 13 14 15 16 17 18 19 20 21 22 23 24 25 26 27 28 29 30 31 32 33 34 35 36 37 38 39 40 41 42 43 44 45 46 47 48 49 50

698
ASUS45 KSLC 072210
RWRUT

UTAH REGIONAL WEATHER ROUNDUP
NATIONAL WEATHER SERVICE SALT LAKE CITY UT
300 PM MST SUN FEB 07 2016

UTZ001>011-023>025-072300-

NORTHERN UTAH

CITY           SKY/WX    TMP DP  RH WIND       PRES   REMARKS
BRIGHAM CITY   SUNNY     32  25  74 CALM      30.60F
HILL AFB       SUNNY     37  23  58 W3        30.57S
LOGAN          SUNNY     30  22  72 CALM      30.58F
OGDEN          SUNNY     35  27  72 NW6       30.58S WCI  30
PROVO AIRPORT  NOT AVBL
SALT LAKE CITY MOSUNNY   39  26  59 N5        30.58F HAZE
VERNAL         CLOUDY    24  13  62 CALM      30.50F
WENDOVER       SUNNY     39  27  60 E5        30.60S
HEBER CITY     SUNNY     32  18  55 CALM      30.53R
WEST JORDAN    SUNNY     37  27  65 CALM      30.58F

$$

UTZ012>022-026-027-072300-

SOUTHERN/CENTRAL UTAH

CITY           SKY/WX    TMP DP  RH WIND       PRES   REMARKS
BLANDING       SUNNY     37  28  70 S6        30.47S WCI  33
BRYCE CANYON   SUNNY     40  18  41 N16       30.46S WCI  31
CEDAR CITY     SUNNY     35  20  54 SE3       30.49S
DELTA          MOSUNNY   23  22  96 SW3       30.60R
HANKSVILLE     SUNNY     30  23  74 CALM      30.55S
MILFORD        SUNNY     20  32 100 N13       30.54F WCI   7
MOAB/CYNLANDS  SUNNY     25  19  78 NW7       30.51F WCI  17
PRICE          SUNNY     31  18  58 SE3       30.46S
ST GEORGE      CLEAR     59  27  29 CALM      30.39F
KANAB          SUNNY     57  27  30 E15       30.41F

$$

REGIONAL REPORTS     COLORADO/ARIZONA

CITY           SKY/WX    TMP DP  RH WIND       PRES   REMARKS
CRAIG, CO      CLOUDY    22  15  75 S3        30.46F
GRAND JUNCTION SUNNY     32  19  58 CALM      30.50S
RIFLE          SUNNY     32  14  47 CALM      30.48S
MONTROSE       SUNNY     36  16  44 CALM      30.49S
CORTEZ         SUNNY     43  24  47 W15       30.35F
PAGE, AZ       SUNNY     43  23  45 NE8       30.45F
GRAND CANYON   SUNNY     49  15  25 NE17G24   30.43R
KINGMAN        SUNNY     64  21  19 N17       30.29F
FLAGSTAFF      SUNNY     45  14  28 NE15G24   30.40S

$$

REGIONAL REPORTS    NEVADA/IDAHO/WYOMING

CITY           SKY/WX    TMP DP  RH WIND       PRES   REMARKS
LAS VEGAS, NV  SUNNY     68  17  14 NE7       30.29F
ELY            SUNNY     32  18  56 NW5       30.54F WCI  27
ELKO           SUNNY     31  17  56 CALM      30.59F
POCATELLO, ID  CLOUDY    33  25  72 W6        30.59S WCI  28
BURLEY         MOSUNNY   40  31  70 NW6       30.56F
EVANSTON, WY   CLOUDY    31  21  66 SW14      30.51S WCI  21
ROCK SPRINGS   CLOUDY    33  22  63 W30G38    30.41R WCI  19
KEMMERER       CLOUDY    32  23  69 W30       30.45S WCI  18

$$




USA.gov is the U.S. government's official web portal to all federal, state and local government web resources and services.